Location: Chuathbaluk
(61.5726°N, 159.2454°W)
Time: 04:41:06
(UTC+00:00)

Transit 2A - Pass Details

Date: 02 December 2020
Orbit: 599 x 960 km, 66.7° (Epoch: 26 January)

Event Time Altitude Azimuth Distance (km) Brightness Sun altitude
Rises 02:04:48 0° 159° (SSE) 3,609 9.8 -4.2°
Reaches altitude 10° 02:08:35 10° 138° (SE) 2,631 8.8 -4.6°
Maximum altitude 02:11:45 15° 106° (ESE) 2,267 8.1 -4.9°
Drops below altitude 10° 02:14:51 10° 75° (ENE) 2,542 8.1 -5.2°
Enters shadow 02:16:27 - 63° (ENE) 2,887 8.3 -5.3°
Sets 02:18:23 0° 52° (NE) 3,411 - -5.5°
